Flag for U.S.A. Weather past 2 weeks in Huntington Beach, California, U.S.A.

Now
72 °F

Scattered clouds.


Feels Like: 76 °F
Forecast: 67 / 79 °F
Wind: 6 mph from Southeast

Location: John Wayne Airport-Orange County Airport

Current Time: Aug 20, 2014 at 8:47:47 AM

Latest Report: Aug 20, 2014 at 7:53 AM


Visibility: 10 mi

Pressure: 29.92 "Hg

Humidity: 64%

Dew point: 59 °F

Location of Huntington BeachLocation

Historic Weather in Huntington Beach — Graph

°F

Huntington Beach temperature yesterday

Maximum temperature yesterday: 80 °F (at 12:53 PM)
Minimum temperature yesterday: 72 °F (at 2:53 AM)
Average temperature yesterday: 74 °F

Past Weeks' High & Low Weather Summary

 TemperatureHumidityPressure
High89 °F (Aug 15, 2:53 PM)82% (Aug 15, 5:53 AM)30.06 "Hg (Aug 15, 5:53 AM)
Low68 °F (Aug 7, 12:53 AM)29% (Aug 15, 3:53 PM)29.79 "Hg (Aug 18, 4:53 PM)
Average75 °F64%29.93 "Hg
* Reported Aug 5 7:53 AM — Aug 20 7:53 AM, Huntington Beach, Weather by CustomWeather, © 2014

Note: Actual official high and low records may vary slightly from our data, if they occured in-between our weather recording intervals... More about our weather records

Advertising

Huntington Beach weather history for previous 24 hours

 ConditionsComfort  
Time TempWeatherWind HumidityBarometerVisibility
7:53 AM
Aug 20
72 °FScattered clouds.6 mph64%29.92 "Hg10 mi
6:53 AM70 °FPassing clouds.No wind68%29.90 "Hg10 mi
5:53 AM70 °FPassing clouds.3 mph68%29.89 "Hg10 mi
4:53 AM70 °FPassing clouds.6 mph68%29.88 "Hg10 mi
3:53 AM71 °FOvercast.5 mph66%29.89 "Hg10 mi
2:53 AM71 °FPassing clouds.8 mph66%29.88 "Hg10 mi
1:53 AM71 °FPassing clouds.5 mph66%29.88 "Hg10 mi
12:53 AM71 °FPassing clouds.5 mph66%29.88 "Hg10 mi
12:01 AM72 °FPassing clouds.7 mph65%29.89 "Hg10 mi
10:53 PM
Aug 19
72 °FOvercast.3 mph64%29.88 "Hg10 mi
9:53 PM72 °FPassing clouds.7 mph66%29.88 "Hg10 mi
8:53 PM72 °FPassing clouds.6 mph66%29.87 "Hg10 mi
7:53 PM72 °FBroken clouds.7 mph66%29.85 "Hg10 mi
6:53 PM73 °FBroken clouds.13 mph64%29.84 "Hg10 mi
5:53 PM75 °FBroken clouds.9 mph60%29.84 "Hg10 mi
4:53 PM76 °FPartly sunny.12 mph60%29.84 "Hg10 mi
3:53 PM76 °FBroken clouds.14 mph62%29.85 "Hg10 mi
2:53 PM78 °FScattered clouds.12 mph58%29.85 "Hg10 mi
1:53 PM79 °FScattered clouds.14 mph56%29.87 "Hg10 mi
12:53 PM80 °FScattered clouds.14 mph52%29.88 "Hg10 mi
11:53 AM79 °FScattered clouds.12 mph52%29.90 "Hg10 mi
10:53 AM78 °FScattered clouds.8 mph52%29.90 "Hg10 mi
9:53 AM76 °FPartly sunny.6 mph54%29.89 "Hg10 mi
8:53 AM74 °FPartly sunny.6 mph60%29.89 "Hg10 mi
Weather by CustomWeather, © 2014

See weather overviewHow to use our weather pages